| time (UTC) | temp F | wind direction | speed MPH | gust MPH | rain 1hr in | rain 24hr in | rain mn in | humidity % | barometer mb |
| 20260504160425 | 64 | 264 | 8.0 | 10.0 | 0.00 | 0.00 | 0.00 | 50 | 1009.1 |
| 20260504150849 | 62 | 239 | 1.0 | 2.0 | 0.00 | 0.00 | 0.00 | 54 | 1009.4 |
| 20260504150345 | 62 | 229 | 5.0 | 7.0 | 0.00 | 0.00 | 0.00 | 50 | 1009.7 |
| 20260504141315 | 59 | 176 | 3.0 | 6.0 | 0.00 | 0.00 | 0.00 | 53 | 1010.0 |
| 20260504140812 | 59 | 234 | 8.0 | 9.0 | 0.00 | 0.00 | 0.00 | 52 | 1010.2 |
| 20260504140308 | 60 | 208 | 0.0 | 1.0 | 0.00 | 0.00 | 0.00 | 52 | 1010.2 |
| 20260504130736 | 54 | 244 | 2.0 | 3.0 | 0.00 | 0.00 | 0.00 | 56 | 1010.7 |
| 20260504130232 | 54 | 232 | 2.0 | 2.0 | 0.00 | 0.00 | 0.00 | 57 | 1011.0 |
| 20260504120156 | 51 | 188 | 9.0 | 9.0 | 0.00 | 0.00 | 0.00 | 60 | 1010.9 |
| 20260504110623 | 48 | 223 | 0.0 | 0.0 | 0.00 | 0.00 | 0.00 | 63 | 1010.6 |
| 20260504110119 | 48 | 226 | 1.0 | 1.0 | 0.00 | 0.00 | 0.00 | 63 | 1010.6 |
| 20260504100545 | 48 | 245 | 0.0 | 0.0 | 0.00 | 0.00 | 0.00 | 63 | 1010.7 |
| 20260504081939 | 48 | 269 | 1.0 | 2.0 | 0.00 | 0.00 | 0.00 | 62 | 1011.5 |
| 20260504081436 | 48 | 186 | 1.0 | 2.0 | 0.00 | 0.00 | 0.00 | 62 | 1011.2 |
| 20260504080931 | 48 | 225 | 1.0 | 1.0 | 0.00 | 0.00 | 0.00 | 62 | 1011.5 |
| 20260504080429 | 48 | 225 | 1.0 | 1.0 | 0.00 | 0.00 | 0.00 | 62 | 1011.5 |
| 20260504070356 | 46 | 120 | 3.0 | 3.0 | 0.00 | 0.00 | 0.00 | 68 | 1011.4 |
| 20260504050744 | 39 | 224 | 0.0 | 0.0 | 0.00 | 0.00 | 0.00 | 85 | 1012.1 |
| 20260504050241 | 39 | 223 | 3.0 | 3.0 | 0.00 | 0.00 | 0.00 | 86 | 1011.9 |
| 20260504045738 | 39 | 207 | 0.0 | 0.0 | 0.00 | 0.00 | 0.00 | 86 | 1012.0 |
| 20260504045233 | 40 | 223 | 0.0 | 1.0 | 0.00 | 0.00 | 0.00 | 85 | 1011.9 |
| 20260504044731 | 39 | 185 | 1.0 | 1.0 | 0.00 | 0.00 | 0.00 | 85 | 1012.0 |
| 20260504044228 | 40 | 186 | 2.0 | 2.0 | 0.00 | 0.00 | 0.00 | 83 | 1012.1 |
| 20260504043725 | 40 | 180 | 2.0 | 2.0 | 0.00 | 0.00 | 0.00 | 85 | 1012.1 |
| 20260504043222 | 41 | 216 | 0.0 | 0.0 | 0.00 | 0.00 | 0.00 | 84 | 1012.0 |
| 20260504042720 | 41 | 205 | 1.0 | 1.0 | 0.00 | 0.00 | 0.00 | 81 | 1012.2 |
| 20260504042216 | 41 | 192 | 2.0 | 2.0 | 0.00 | 0.00 | 0.00 | 82 | 1012.1 |
| 20260504041712 | 42 | 215 | 0.0 | 0.0 | 0.00 | 0.00 | 0.00 | 80 | 1012.2 |
| 20260504041208 | 42 | 225 | 2.0 | 2.0 | 0.00 | 0.00 | 0.00 | 79 | 1012.3 |
| 20260504040705 | 43 | 221 | 0.0 | 0.0 | 0.00 | 0.00 | 0.00 | 76 | 1011.9 |
| 20260504040202 | 44 | 214 | 2.0 | 2.0 | 0.00 | 0.00 | 0.00 | 73 | 1012.1 |
| 20260504035658 | 43 | 227 | 2.0 | 2.0 | 0.00 | 0.00 | 0.00 | 75 | 1012.1 |
| 20260504035155 | 44 | 220 | 1.0 | 2.0 | 0.00 | 0.00 | 0.00 | 75 | 1012.1 |
| 20260504034653 | 44 | 228 | 1.0 | 1.0 | 0.00 | 0.00 | 0.00 | 74 | 1011.9 |
| 20260504034150 | 45 | 226 | 2.0 | 2.0 | 0.00 | 0.00 | 0.00 | 73 | 1012.0 |
| 20260504033647 | 45 | 222 | 0.0 | 1.0 | 0.00 | 0.00 | 0.00 | 71 | 1012.2 |
| 20260504033144 | 44 | 209 | 3.0 | 3.0 | 0.00 | 0.00 | 0.00 | 73 | 1012.2 |
| 20260504032641 | 44 | 209 | 2.0 | 3.0 | 0.00 | 0.00 | 0.00 | 73 | 1012.0 |
| 20260504032138 | 44 | 194 | 2.0 | 2.0 | 0.00 | 0.00 | 0.00 | 74 | 1012.2 |
| 20260504031635 | 44 | 213 | 2.0 | 2.0 | 0.00 | 0.00 | 0.00 | 75 | 1012.2 |
| 20260504031132 | 44 | 195 | 2.0 | 2.0 | 0.00 | 0.00 | 0.00 | 74 | 1012.2 |
| 20260504030628 | 45 | 212 | 0.0 | 1.0 | 0.00 | 0.00 | 0.00 | 72 | 1012.3 |
| 20260504030125 | 44 | 213 | 2.0 | 2.0 | 0.00 | 0.00 | 0.00 | 74 | 1012.2 |
| 20260504025622 | 44 | 208 | 1.0 | 1.0 | 0.00 | 0.00 | 0.00 | 77 | 1011.9 |
| 20260504025119 | 45 | 201 | 0.0 | 0.0 | 0.00 | 0.00 | 0.00 | 72 | 1012.3 |
| 20260504024616 | 46 | 216 | 1.0 | 1.0 | 0.00 | 0.00 | 0.00 | 72 | 1012.1 |
| 20260504024113 | 45 | 191 | 2.0 | 2.0 | 0.00 | 0.00 | 0.00 | 74 | 1012.2 |
| 20260504023609 | 46 | 190 | 2.0 | 2.0 | 0.00 | 0.00 | 0.00 | 74 | 1012.1 |
| 20260504023105 | 46 | 217 | 0.0 | 0.0 | 0.00 | 0.00 | 0.00 | 72 | 1012.2 |
| 20260504022602 | 46 | 208 | 1.0 | 1.0 | 0.00 | 0.00 | 0.00 | 70 | 1012.1 |
| 20260504022058 | 46 | 211 | 0.0 | 0.0 | 0.00 | 0.00 | 0.00 | 70 | 1012.1 |
| 20260504021556 | 47 | 226 | 0.0 | 1.0 | 0.00 | 0.00 | 0.00 | 69 | 1012.0 |
| 20260504021052 | 47 | 202 | 0.0 | 0.0 | 0.00 | 0.00 | 0.00 | 69 | 1012.1 |
| 20260504020549 | 48 | 219 | 0.0 | 0.0 | 0.00 | 0.00 | 0.00 | 63 | 1012.0 |
| 20260504020045 | 47 | 217 | 0.0 | 1.0 | 0.00 | 0.00 | 0.00 | 67 | 1012.0 |
| 20260504015542 | 48 | 190 | 1.0 | 1.0 | 0.00 | 0.00 | 0.00 | 71 | 1012.3 |
| 20260504015038 | 49 | 211 | 0.0 | 0.0 | 0.00 | 0.00 | 0.00 | 63 | 1012.3 |
| 20260504014534 | 49 | 212 | 0.0 | 0.0 | 0.00 | 0.00 | 0.00 | 59 | 1012.3 |
| 20260504014032 | 50 | 213 | 0.0 | 0.0 | 0.00 | 0.00 | 0.00 | 58 | 1012.3 |
| 20260504013529 | 51 | 219 | 0.0 | 0.0 | 0.00 | 0.00 | 0.00 | 57 | 1012.3 |
| 20260504013026 | 51 | 220 | 0.0 | 0.0 | 0.00 | 0.00 | 0.00 | 55 | 1012.1 |
| 20260504012524 | 53 | 211 | 0.0 | 0.0 | 0.00 | 0.00 | 0.00 | 51 | 1012.3 |
| 20260504012022 | 54 | 217 | 0.0 | 0.0 | 0.00 | 0.00 | 0.00 | 47 | 1011.8 |
| 20260504011518 | 53 | 222 | 0.0 | 0.0 | 0.00 | 0.00 | 0.00 | 47 | 1011.9 |
| 20260504011014 | 54 | 220 | 0.0 | 0.0 | 0.00 | 0.00 | 0.00 | 46 | 1012.0 |
| 20260504010510 | 54 | 295 | 1.0 | 3.0 | 0.00 | 0.00 | 0.00 | 45 | 1011.7 |
| 20260504010006 | 55 | 269 | 3.0 | 3.0 | 0.00 | 0.00 | 0.00 | 44 | 1011.7 |
| 20260504005503 | 55 | 259 | 3.0 | 3.0 | 0.00 | 0.00 | 0.00 | 44 | 1011.9 |
| 20260504005000 | 55 | 344 | 4.0 | 5.0 | 0.00 | 0.00 | 0.00 | 45 | 1011.8 |
| 20260504004458 | 55 | 331 | 5.0 | 9.0 | 0.00 | 0.00 | 0.00 | 43 | 1012.0 |
| 20260504003954 | 55 | 264 | 5.0 | 7.0 | 0.00 | 0.00 | 0.00 | 43 | 1011.5 |
| 20260504003450 | 55 | 261 | 5.0 | 6.0 | 0.00 | 0.00 | 0.00 | 44 | 1011.9 |
| 20260504002948 | 55 | 268 | 4.0 | 5.0 | 0.00 | 0.00 | 0.00 | 42 | 1011.6 |
| 20260504002445 | 55 | 253 | 5.0 | 7.0 | 0.00 | 0.00 | 0.00 | 44 | 1011.8 |
| 20260504001942 | 55 | 267 | 3.0 | 3.0 | 0.00 | 0.00 | 0.00 | 45 | 1011.8 |
| 20260504001439 | 55 | 272 | 3.0 | 3.0 | 0.00 | 0.00 | 0.00 | 44 | 1011.7 |
| 20260504000936 | 55 | 323 | 6.0 | 9.0 | 0.00 | 0.00 | 0.00 | 44 | 1011.9 |
| 20260504000433 | 55 | 279 | 3.0 | 3.0 | 0.00 | 0.00 | 0.00 | 44 | 1011.8 |
| 20260503235930 | 55 | 300 | 4.0 | 5.0 | 0.00 | 0.00 | 0.00 | 43 | 1011.7 |
| 20260503235428 | 56 | 309 | 5.0 | 7.0 | 0.00 | 0.00 | 0.00 | 43 | 1011.8 |
| 20260503234925 | 56 | 291 | 5.0 | 6.0 | 0.00 | 0.00 | 0.00 | 44 | 1011.6 |
| 20260503234422 | 56 | 302 | 8.0 | 9.0 | 0.00 | 0.00 | 0.00 | 41 | 1011.4 |
| 20260503233920 | 56 | 306 | 4.0 | 5.0 | 0.00 | 0.00 | 0.00 | 42 | 1011.4 |
| 20260503233417 | 56 | 293 | 2.0 | 3.0 | 0.00 | 0.00 | 0.00 | 43 | 1011.6 |
| 20260503232913 | 56 | 270 | 5.0 | 6.0 | 0.00 | 0.00 | 0.00 | 41 | 1011.4 |
| 20260503232410 | 56 | 266 | 3.0 | 5.0 | 0.00 | 0.00 | 0.00 | 43 | 1011.6 |
| 20260503231908 | 56 | 292 | 0.0 | 0.0 | 0.00 | 0.00 | 0.00 | 42 | 1011.4 |
| 20260503231405 | 57 | 229 | 0.0 | 0.0 | 0.00 | 0.00 | 0.00 | 41 | 1011.6 |
| 20260503230901 | 57 | 298 | 6.0 | 7.0 | 0.00 | 0.00 | 0.00 | 40 | 1011.3 |
| 20260503230358 | 57 | 292 | 4.0 | 5.0 | 0.00 | 0.00 | 0.00 | 41 | 1011.4 |
| 20260503225856 | 57 | 247 | 2.0 | 2.0 | 0.00 | 0.00 | 0.00 | 42 | 1011.5 |
| 20260503225351 | 57 | 355 | 5.0 | 6.0 | 0.00 | 0.00 | 0.00 | 40 | 1011.3 |
| 20260503224848 | 57 | 255 | 11.0 | 14.0 | 0.00 | 0.00 | 0.00 | 39 | 1011.4 |
| 20260503224345 | 57 | 322 | 5.0 | 7.0 | 0.00 | 0.00 | 0.00 | 41 | 1011.4 |
| 20260503223843 | 58 | 321 | 9.0 | 11.0 | 0.00 | 0.00 | 0.00 | 39 | 1011.3 |
| 20260503223340 | 58 | 327 | 6.0 | 8.0 | 0.00 | 0.00 | 0.00 | 39 | 1011.3 |
| 20260503222836 | 58 | 319 | 6.0 | 9.0 | 0.00 | 0.00 | 0.00 | 40 | 1011.3 |
| 20260503222335 | 59 | 325 | 5.0 | 6.0 | 0.00 | 0.00 | 0.00 | 40 | 1011.3 |
| 20260503221832 | 58 | 311 | 9.0 | 13.0 | 0.00 | 0.00 | 0.00 | 39 | 1011.3 |
| 20260503221331 | 57 | 258 | 7.0 | 8.0 | 0.00 | 0.00 | 0.00 | 40 | 1011.3 |
| 20260503220826 | 58 | 314 | 11.0 | 18.0 | 0.00 | 0.00 | 0.00 | 39 | 1011.2 |
| 20260503220323 | 58 | 285 | 9.0 | 10.0 | 0.00 | 0.00 | 0.00 | 39 | 1011.0 |
| 20260503215820 | 58 | 266 | 5.0 | 7.0 | 0.00 | 0.00 | 0.00 | 40 | 1011.3 |
| 20260503215318 | 57 | 330 | 8.0 | 9.0 | 0.00 | 0.00 | 0.00 | 41 | 1011.3 |
| 20260503214815 | 58 | 291 | 8.0 | 10.0 | 0.00 | 0.00 | 0.00 | 42 | 1011.2 |
| 20260503214312 | 58 | 247 | 3.0 | 5.0 | 0.00 | 0.00 | 0.00 | 41 | 1011.3 |
| 20260503213810 | 59 | 299 | 9.0 | 10.0 | 0.00 | 0.00 | 0.00 | 41 | 1011.3 |
| 20260503213307 | 59 | 346 | 6.0 | 7.0 | 0.00 | 0.00 | 0.00 | 40 | 1011.3 |
| 20260503212804 | 58 | 241 | 6.0 | 8.0 | 0.00 | 0.00 | 0.00 | 41 | 1011.1 |
| 20260503212302 | 58 | 315 | 7.0 | 8.0 | 0.00 | 0.00 | 0.00 | 42 | 1011.0 |
| 20260503211759 | 58 | 252 | 5.0 | 7.0 | 0.00 | 0.00 | 0.00 | 42 | 1011.1 |
| 20260503211255 | 58 | 7 | 14.0 | 16.0 | 0.00 | 0.00 | 0.00 | 41 | 1011.0 |
| 20260503210755 | 59 | 314 | 13.0 | 17.0 | 0.00 | 0.00 | 0.00 | 40 | 1011.1 |
| 20260503210253 | 58 | 292 | 12.0 | 15.0 | 0.00 | 0.00 | 0.00 | 42 | 1011.2 |
| 20260503205748 | 59 | 324 | 12.0 | 16.0 | 0.00 | 0.00 | 0.00 | 42 | 1011.1 |
| 20260503205245 | 58 | 307 | 10.0 | 11.0 | 0.00 | 0.00 | 0.00 | 41 | 1011.3 |
| 20260503204741 | 58 | 336 | 10.0 | 13.0 | 0.00 | 0.00 | 0.00 | 42 | 1011.4 |
| 20260503204239 | 58 | 309 | 8.0 | 13.0 | 0.00 | 0.00 | 0.00 | 41 | 1011.5 |
| 20260503203736 | 59 | 220 | 5.0 | 7.0 | 0.00 | 0.00 | 0.00 | 42 | 1011.5 |
| 20260503203234 | 58 | 284 | 9.0 | 9.0 | 0.00 | 0.00 | 0.00 | 41 | 1011.5 |
| 20260503202731 | 57 | 312 | 8.0 | 9.0 | 0.00 | 0.00 | 0.00 | 43 | 1011.6 |
| 20260503202229 | 57 | 231 | 0.0 | 0.0 | 0.00 | 0.00 | 0.00 | 44 | 1011.5 |
| 20260503201726 | 57 | 262 | 11.0 | 14.0 | 0.00 | 0.00 | 0.00 | 43 | 1011.7 |
| 20260503201224 | 57 | 317 | 10.0 | 14.0 | 0.00 | 0.00 | 0.00 | 41 | 1011.8 |
| 20260503200720 | 57 | 307 | 12.0 | 15.0 | 0.00 | 0.00 | 0.00 | 42 | 1011.8 |
| 20260503200216 | 57 | 331 | 11.0 | 13.0 | 0.00 | 0.00 | 0.00 | 42 | 1011.8 |
| 20260503195713 | 57 | 348 | 9.0 | 14.0 | 0.00 | 0.00 | 0.00 | 44 | 1011.8 |
| 20260503195210 | 57 | 215 | 9.0 | 13.0 | 0.00 | 0.00 | 0.00 | 43 | 1011.8 |
| 20260503194707 | 58 | 297 | 6.0 | 7.0 | 0.00 | 0.00 | 0.00 | 42 | 1011.9 |
| 20260503194203 | 58 | 249 | 5.0 | 7.0 | 0.00 | 0.00 | 0.00 | 43 | 1011.8 |
| 20260503193659 | 58 | 236 | 9.0 | 11.0 | 0.00 | 0.00 | 0.00 | 42 | 1012.2 |
| 20260503193155 | 56 | 314 | 6.0 | 7.0 | 0.00 | 0.00 | 0.00 | 44 | 1012.1 |
| 20260503192651 | 57 | 286 | 12.0 | 15.0 | 0.00 | 0.00 | 0.00 | 42 | 1012.3 |
| 20260503192147 | 56 | 297 | 6.0 | 8.0 | 0.00 | 0.00 | 0.00 | 43 | 1012.5 |
| 20260503191643 | 56 | 243 | 7.0 | 11.0 | 0.00 | 0.00 | 0.00 | 45 | 1012.2 |
| 20260503191141 | 56 | 332 | 7.0 | 13.0 | 0.00 | 0.00 | 0.00 | 45 | 1012.6 |
| 20260503190638 | 55 | 274 | 7.0 | 9.0 | 0.00 | 0.00 | 0.00 | 43 | 1012.4 |
| 20260503190134 | 55 | 322 | 9.0 | 9.0 | 0.00 | 0.00 | 0.00 | 43 | 1012.6 |
| 20260503185631 | 55 | 328 | 11.0 | 14.0 | 0.00 | 0.00 | 0.00 | 43 | 1012.5 |
| 20260503185126 | 54 | 327 | 10.0 | 11.0 | 0.00 | 0.00 | 0.00 | 42 | 1012.8 |
| 20260503184621 | 54 | 271 | 11.0 | 14.0 | 0.00 | 0.00 | 0.00 | 44 | 1012.8 |
| 20260503184118 | 54 | 353 | 7.0 | 10.0 | 0.00 | 0.00 | 0.00 | 44 | 1013.0 |
| 20260503183615 | 54 | 341 | 11.0 | 11.0 | 0.00 | 0.00 | 0.00 | 45 | 1013.1 |
| 20260503183112 | 53 | 343 | 8.0 | 10.0 | 0.00 | 0.00 | 0.00 | 45 | 1013.0 |
| 20260503182610 | 54 | 325 | 5.0 | 6.0 | 0.00 | 0.00 | 0.00 | 45 | 1013.0 |
| 20260503182108 | 54 | 326 | 9.0 | 11.0 | 0.00 | 0.00 | 0.00 | 43 | 1013.0 |
| 20260503181605 | 54 | 40 | 7.0 | 8.0 | 0.00 | 0.00 | 0.00 | 44 | 1013.2 |
| 20260503181102 | 54 | 5 | 5.0 | 9.0 | 0.00 | 0.00 | 0.00 | 43 | 1013.4 |
| 20260503180559 | 53 | 345 | 13.0 | 16.0 | 0.00 | 0.00 | 0.00 | 43 | 1013.1 |
| 20260503180056 | 53 | 324 | 6.0 | 8.0 | 0.00 | 0.00 | 0.00 | 44 | 1013.3 |
| 20260503175553 | 53 | 300 | 6.0 | 8.0 | 0.00 | 0.00 | 0.00 | 46 | 1013.1 |
| 20260503175050 | 53 | 300 | 11.0 | 24.0 | 0.00 | 0.00 | 0.00 | 44 | 1013.4 |
| 20260503174547 | 53 | 312 | 4.0 | 7.0 | 0.00 | 0.00 | 0.00 | 45 | 1013.4 |
| 20260503174044 | 53 | 316 | 10.0 | 15.0 | 0.00 | 0.00 | 0.00 | 45 | 1013.2 |
| 20260503173539 | 53 | 260 | 8.0 | 9.0 | 0.00 | 0.00 | 0.00 | 44 | 1013.6 |
| 20260503173035 | 52 | 338 | 12.0 | 16.0 | 0.00 | 0.00 | 0.00 | 43 | 1013.4 |
| 20260503172533 | 53 | 337 | 14.0 | 16.0 | 0.00 | 0.00 | 0.00 | 44 | 1013.4 |
| 20260503172030 | 52 | 342 | 7.0 | 8.0 | 0.00 | 0.00 | 0.00 | 44 | 1013.7 |
| 20260503171526 | 51 | 351 | 8.0 | 10.0 | 0.00 | 0.00 | 0.00 | 44 | 1013.5 |
| 20260503171024 | 51 | 339 | 12.0 | 15.0 | 0.00 | 0.00 | 0.00 | 45 | 1013.7 |
| 20260503170520 | 52 | 349 | 15.0 | 22.0 | 0.00 | 0.00 | 0.00 | 45 | 1013.7 |